Regional Weather Roundup
Issued by NWS Newport/Morehead, NC

Current Version | Previous Version | Text Only | Print | Product List | Glossary Off
Versions: 1 2 3 4 5 6 7 8 9 10 11 12 13 14 15 16 17 18 19 20 21 22 23 24 25 26 27 28 29 30 31 32 33 34 35 36 37 38 39 40 41 42 43 44 45 46 47 48 49 50

000
ASUS42 KMHX 011712
RWRMHX
WEATHER ROUNDUP FOR EASTERN NORTH CAROLINA
NATIONAL WEATHER SERVICE NEWPORT/MOREHEAD CITY NC
100 PM EDT WED APR 01 2015

NOTE: "FAIR" INDICATES FEW OR NO CLOUDS BELOW 12,000 FEET
WITH NO SIGNIFICANT WEATHER AND/OR OBSTRUCTIONS TO VISIBILITY

NCZ015>017-031-032-045>047-102-103-011800-
NORTH COAST

CITY           SKY/WX    TMP DP  RH WIND       PRES   REMARKS
EDENTON        SUNNY     56  29  36 NE6       30.15S
ELIZABETH CITY SUNNY     53  29  39 N13G25    30.16R
KITTY HAWK     SUNNY     46  32  57 NE12      30.16R
MANTEO         SUNNY     48  31  52 N16       30.17R

$$

NCZ045>047-081-094-103-104-011800-
CENTRAL COAST

CITY           SKY/WX    TMP DP  RH WIND       PRES   REMARKS
FRISCO         SUNNY     48  30  49 NE12G22   30.15R
SWANQUARTER      N/A     54 N/A N/A E7        30.09S

$$

NCZ095-097-098-100-101-011800-
SOUTHERN COAST

CITY           SKY/WX    TMP DP  RH WIND       PRES   REMARKS
BEAUFORT       SUNNY     57  33  40 MISG      30.13S
CEDAR ISLAND     N/A     52 N/A N/A N12G17    30.18S
JACKSONVILLE   SUNNY     62  37  39 NE13      30.12S
PINEY ISLAND   SUNNY    N/A N/A N/A NE12G20   30.14S
WILMINGTON     SUNNY     65  43  44 VRB6      30.10F


$$

NCZ011>013-027>030-043-044-078>080-089-090>093-098-011800-
COASTAL PLAIN

CITY           SKY/WX    TMP DP  RH WIND       PRES   REMARKS
AHOSKIE        SUNNY     54  26  34 N9        30.15S
CLINTON        SUNNY     62  38  42 NE7       30.13S
ELIZABETHTOWN  SUNNY     64  39  39 E6        30.11S
GOLDSBORO      SUNNY     59  36  41 NE8       30.13R
GREENVILLE     SUNNY     55  30  38 N3        30.16S
HAVELOCK       SUNNY     59  32  36 NE13G24   30.14S
KENANSVILLE    SUNNY     59  35  39 N5        30.14S
KINSTON        SUNNY     59  32  36 N8        30.15S
NEW BERN       SUNNY     59  35  40 N8        30.15S
RICHLANDS      SUNNY     61  37  41 N9G21     30.13S
ROCKY MOUNT    SUNNY     57  31  37 VRB5      30.16R
WASHINGTON     SUNNY     56  28  34 N12       30.15R
WHITEVILLE     SUNNY     65  45  48 E8        30.10S

$$

AMZ130-135-150-152-154-156-158-170-250-252-270-ANZ085-086-088-633-658-670-011800-
MARINE OBSERVATIONS

STATION/POSITION TIME  TEMP    WIND        PRES    WAVE   SWELL
                       AIR SEA DIR/SP/G            HT/PER HT/PER
                 (UTC) (F)     (DEG/KT/KT) (MB)    (FT/S) (FT/S)
CHESAPEAKE LIGHT 1600   42     360/ 16/ 17 1021.1
64 E VA BEACH    1650   42 51  360/ 17/ 21 1020.1    7/ 7   2/13
DUCK             1600   42 42  360/ 12/ 15 1020.2
2 E DUCK         1611      42                N/A     6/ 6
10 NE DUCK       NOT AVBL
OREGON INLET     1600   45 51  360/ 14/ 20 1021.1
HATTERAS CG      1600   45 55   20/ 18/ 21 1021.0
CAPE LOOKOUT     1700   53      40/ 13/ 16 1020.1
BEAUFORT LAB     1600   53 54   10/ 15/ 19 1019.3
27 SE WRIGHTSVLE 1600   51 63   60/ 17/ 19 1021.1
5 SE WRIGHTSVLE  1600   54 56   80/ 16/ 17 1019.8
225 S CAPE HAT   1650   69 69  320/  6/  8 1016.1    7/ 7   7/ 7
41 SE CHARLESTON 1650   65 68   10/ 17/ 19 1017.0    3/ 6

$$



USA.gov is the U.S. government's official web portal to all federal, state and local government web resources and services.